This is the latest recevied weather packets stored in our database for station/object DB0DUS-10. If no packets are shown the sender has not sent any weather packets the latest 10 day(s).
| Time | Temp. | Humidity | Pressure | Rain* | Wind** | Luminosity | Snow |
|---|---|---|---|---|---|---|---|
| 1777498696 | 12.22° C | 47% | 1027.6 hPa | 0 mm | - | - | - |
| 1777498097 | 12.22° C | 47% | 1027.6 hPa | 0 mm | - | - | - |
| 1777496896 | 12.78° C | 45% | 1027.4 hPa | 0 mm | - | - | - |
| 1777496597 | 12.78° C | 44% | 1027.1 hPa | 0 mm | - | - | - |
| 1777495096 | 13.89° C | 42% | 1027.2 hPa | 0 mm | - | - | - |
| 1777493597 | 14.44° C | 40% | 1027 hPa | 0 mm | - | - | - |
| 1777493296 | 14.44° C | 39% | 1026.9 hPa | 0 mm | - | - | - |
| 1777492097 | 15° C | 37% | 1026.7 hPa | 0 mm | - | - | - |
| 1777491496 | 15° C | 37% | 1026.6 hPa | 0 mm | - | - | - |
| 1777490597 | 15.56° C | 36% | 1026.4 hPa | 0 mm | - | - | - |
| 1777489696 | 16.11° C | 35% | 1026.2 hPa | 0 mm | - | - | - |
| 1777489097 | 16.11° C | 35% | 1026 hPa | 0 mm | - | - | - |
| 1777487896 | 16.67° C | 35% | 1025.6 hPa | 0 mm | - | - | - |
| 1777487597 | 17.22° C | 35% | 1025.6 hPa | 0 mm | - | - | - |
| 1777486096 | 17.78° C | 33% | 1025.2 hPa | 0 mm | - | - | - |
| 1777484597 | 18.33° C | 33% | 1025 hPa | 0 mm | - | - | - |
| 1777484296 | 18.33° C | 32% | 1024.9 hPa | 0 mm | - | - | - |
| 1777483097 | 18.89° C | 31% | 1024.9 hPa | 0 mm | - | - | - |
| 1777482496 | 18.89° C | 31% | 1025 hPa | 0 mm | - | - | - |
| 1777481597 | 19.44° C | 29% | 1025 hPa | 0 mm | - | - | - |
| 1777480696 | 20° C | 27% | 1025 hPa | 0 mm | - | - | - |
| 1777480097 | 20° C | 27% | 1024.9 hPa | 0 mm | - | - | - |
| 1777478896 | 20.56° C | 25% | 1025 hPa | 0 mm | - | - | - |
| 1777478597 | 20.56° C | 25% | 1024.8 hPa | 0 mm | - | - | - |
| 1777477096 | 21.11° C | 22% | 1024.8 hPa | 0 mm | - | - | - |
* Rain latest hour (hover to see other rain measurements)
** Current wind speed in m/s (hover to see current wind gust speed)